This is the latest recevied weather packets stored in our database for station/object KD4IZ-13. If no packets are shown the sender has not sent any weather packets the latest 10 day(s).
| Time | Temp. | Humidity | Pressure | Rain* | Wind** | Luminosity | Snow |
|---|---|---|---|---|---|---|---|
| 1778087282 | 15.56° C | 99% | 1010.4 hPa | 0 mm | - | 133 W/m² | - |
| 1778086977 | 15.56° C | 99% | 1010.3 hPa | 0 mm | - | 85 W/m² | - |
| 1778086676 | 15° C | 99% | 1010 hPa | 0 mm | - | 144 W/m² | - |
| 1778086373 | 15° C | 99% | 1010.1 hPa | 0 mm | - | 114 W/m² | - |
| 1778086070 | 15° C | 99% | 1010.3 hPa | 0 mm | - | 107 W/m² | - |
| 1778085767 | 15° C | 99% | 1010.4 hPa | 0 mm | - | 93 W/m² | - |
| 1778085464 | 15° C | 99% | 1010.2 hPa | 0 mm | - | 92 W/m² | - |
| 1778085158 | 15° C | 99% | 1010.3 hPa | 0 mm | - | 108 W/m² | - |
| 1778084855 | 15° C | 99% | 1010.4 hPa | 0 mm | - | 89 W/m² | - |
| 1778084552 | 15° C | 99% | 1010.2 hPa | 0 mm | - | 81 W/m² | - |
| 1778084244 | 15° C | 99% | 1010.5 hPa | 0 mm | - | 98 W/m² | - |
| 1778083941 | 15° C | 99% | 1010.5 hPa | 0 mm | - | 94 W/m² | - |
| 1778083639 | 15° C | 99% | 1010.6 hPa | 0 mm | - | 86 W/m² | - |
| 1778083335 | 15° C | 99% | 1010.5 hPa | 0 mm | - | 85 W/m² | - |
| 1778083034 | 15° C | 99% | 1010.4 hPa | 0 mm | - | 76 W/m² | - |
| 1778082730 | 15° C | 99% | 1010.3 hPa | 0 mm | - | 122 W/m² | - |
| 1778081592 | 15° C | 99% | 1010.4 hPa | 0 mm | - | 156 W/m² | - |
| 1778081289 | 15° C | 99% | 1010.3 hPa | 0 mm | - | 162 W/m² | - |
| 1778080986 | 15° C | 99% | 1010.6 hPa | 1.27 mm | - | 136 W/m² | - |
| 1778080685 | 15° C | 99% | 1010.7 hPa | 1.78 mm | - | 99 W/m² | - |
| 1778080381 | 15° C | 99% | 1010.8 hPa | 3.05 mm | - | 116 W/m² | - |
| 1778080078 | 15° C | 99% | 1010.8 hPa | 3.05 mm | - | 78 W/m² | - |
| 1778079775 | 15° C | 99% | 1011.1 hPa | 1.78 mm | - | 32 W/m² | - |
| 1778079472 | 15° C | 99% | 1011.4 hPa | 1.27 mm | - | 37 W/m² | - |
| 1778079168 | 15° C | 99% | 1011.1 hPa | 3.05 mm | - | 57 W/m² | - |
* Rain latest hour (hover to see other rain measurements)
** Current wind speed in m/s (hover to see current wind gust speed)